Regional Weather Roundup
Issued by NWS

Home | Current Version | Previous Version | Graphics & Text | Print | Product List | Glossary Off
Versions: 1 2 3 4 5 6 7 8 9 10 11 12 13 14 15 16 17 18 19 20 21 22 23 24 25 26 27 28 29 30 31 32 33 34 35 36 37 38 39 40 41 42 43 44 45 46 47 48 49 50

000
ASUS43 KMKX 271811
RWRWI

WISCONSIN REGIONAL WEATHER ROUNDUP
NATIONAL WEATHER SERVICE MILWAUKEE/SULLIVAN WI
100 PM CDT THU AUG 27 2015

NOTE: "FAIR" INDICATES FEW OR NO CLOUDS BELOW 12,000 FEET WITH NO
SIGNIFICANT WEATHER AND/OR OBSTRUCTIONS TO VISIBILITY.

WIZ001-002-006>008-014>016-023>028-271900-
NORTHWEST WISCONSIN

CITY           SKY/WX    TMP DP  RH WIND       PRES   REMARKS
SUPERIOR ARPT  CLOUDY    63  54  74 E6        30.07F
ASHLAND        SUNNY     73  58  59 S7        30.07F
6HR MIN TEMP:  40; 6HR MAX TEMP:  74;

HAYWARD        MOSUNNY   71  55  56 SW12      30.09F
6HR MIN TEMP:  43; 6HR MAX TEMP:  72;

SIREN          CLOUDY    72  55  55 S9        30.08F
CUMBERLAND     CLOUDY    70  54  56 S12       30.10F
RICE LAKE      PTSUNNY   72  57  60 SE10      30.12F
CHETEK         PTSUNNY  N/A N/A N/A S3        30.11F
LADYSMITH      MOSUNNY   72  57  58 S8        30.14F
EAU CLAIRE     PTSUNNY   73  55  53 SW9       30.09F
6HR MIN TEMP:  50; 6HR MAX TEMP:  74;

MENOMONIE      PTSUNNY   72  57  59 S10       30.11F
NEW RICHMOND   MOSUNNY   74  57  56 S9        30.08F
OSCEOLA        CLOUDY    73  58  60 S12       30.10F
$$

WIZ003>005-009-010-017-018-271900-
NORTH CENTRAL WISCONSIN

CITY           SKY/WX    TMP DP  RH WIND       PRES   REMARKS
MANITOWISH WTR SUNNY     69  53  55 SW6       30.12F
ARBOR VITAE    SUNNY     72  55  54 CALM      30.13F
WOODRUFF       SUNNY     72  55  54 CALM      30.13F
RHINELANDER    SUNNY     70  53  54 VRB5      30.14F
6HR MIN TEMP:  41; 6HR MAX TEMP:  71;

EAGLE RIVER    SUNNY     69  51  51 SW3       30.14S
LAND O LAKES   SUNNY     70  47  43 W5        30.14F
PHILLIPS       PTSUNNY   69  56  61 SW6       30.13F
TOMAHAWK       SUNNY     70  55  58 SW5       30.14F
MEDFORD        MOSUNNY   69  57  64 S8        30.15F
MERRILL        SUNNY     70  56  61 CALM      30.15F
$$

WIZ029-030-035-036-043>047-271900-
CENTRAL WISCONSIN

CITY           SKY/WX    TMP DP  RH WIND       PRES   REMARKS
WAUSAU         MOSUNNY   72  55  55 VRB6      30.13F
6HR MIN TEMP:  47; 6HR MAX TEMP:  72;

MOSINEE        MOSUNNY   72  55  56 SW7       30.16S
MARSHFIELD     MOSUNNY   73  53  49 W6        30.14F
6HR MIN TEMP:  49; 6HR MAX TEMP:  74;

STEVENS POINT  PTSUNNY   71  53  53 SW8       30.16S
WAUPACA        SUNNY     76  55  47 S9        30.16S
WAUTOMA        MOSUNNY   76  54  46 VRB6      30.16S
6HR MIN TEMP:  46; 6HR MAX TEMP:  76;

WISC RAPIDS    SUNNY     73  52  47 S9        30.16F
6HR MIN TEMP:  47; 6HR MAX TEMP:  74;

CAMP DOUGLAS   MOSUNNY   75  61  60 SE9       30.14F
$$

WIZ011>013-019>022-031-037>040-048>050-271900-
NORTHEAST WISCONSIN

CITY           SKY/WX    TMP DP  RH WIND       PRES   REMARKS
ANTIGO         MOSUNNY   69  53  56 W7        30.15F
SHAWANO        SUNNY     69  59  71 NE3       30.15F
OCONTO         SUNNY     65  59  81 NW5       30.15F
STURGEON BAY   SUNNY     66  57  72 N5        30.17F
6HR MIN TEMP:  48; 6HR MAX TEMP:  66;

GREEN BAY      MOSUNNY   73  58  59 VRB7      30.15F
6HR MIN TEMP:  53; 6HR MAX TEMP:  73;

MANITOWOC      SUNNY     68  58  70 MISG      30.16F
6HR MIN TEMP:  47; 6HR MAX TEMP:  68;

APPLETON       PTSUNNY   72  52  49 SW7       30.15S
CLINTONVILLE   SUNNY     70  55  60 S3        30.15F
OSHKOSH        MOSUNNY   72  57  59 VRB5      30.15F
6HR MIN TEMP:  56; 6HR MAX TEMP:  72;

$$

WIZ032>034-041-042-053>061-271900-
SOUTHWEST WISCONSIN

CITY           SKY/WX    TMP DP  RH WIND       PRES   REMARKS
LA CROSSE      PTSUNNY   74  57  55 S12       30.13F
6HR MIN TEMP:  52; 6HR MAX TEMP:  74;

SPARTA         MOSUNNY   75  53  47 SW9       30.15F
VIROQUA        PTSUNNY   71  56  59 S9        30.17F
BOSCOBEL       PTSUNNY   75  59  57 SW7       30.16F
6HR MIN TEMP:  51; 6HR MAX TEMP:  76;

PRAIRIE DU CHI CLOUDY    72  56  56 S5        30.16F
PLATTEVILLE    PTSUNNY   71  61  71 S7        30.19S
$$

WIZ056-057-062-063-064-067-068-271900-
SOUTH CENTRAL WISCONSIN

CITY           SKY/WX    TMP DP  RH WIND       PRES   REMARKS
REEDSBURG      SUNNY     73  58  59 SW9       30.16S
BARABOO/DELLS  MOSUNNY   73  53  48 SW6       30.17R
LONE ROCK      MOSUNNY   75  56  51 SW13      30.17S
6HR MIN TEMP:  49; 6HR MAX TEMP:  76;

MINERAL POINT  MOSUNNY   73  57  56 SW7       30.19S
MADISON        PTSUNNY   72  56  57 VRB6      30.17F
6HR MIN TEMP:  50; 6HR MAX TEMP:  72;

MIDDLETON      MOSUNNY   76  56  50 S10       30.18S
WATERTOWN      MOSUNNY   72  57  59 SW8       30.17S
MONROE         MOSUNNY   72  55  56 SW10      30.19S
JANESVILLE     PTSUNNY   73  55  53 SW6       30.18S
$$

WIZ051-052-058>065-066-070>072-271900-
SOUTHEAST WISCONSIN

CITY           SKY/WX    TMP DP  RH WIND       PRES   REMARKS
MILWAUKEE      MOSUNNY   71  55  56 S10       30.18S
6HR MIN TEMP:  58; 6HR MAX TEMP:  73;

WAUKESHA       MOSUNNY   70  54  56 S5        30.18F
MILWAUKEE/TIMM MOSUNNY   72  52  49 S7        30.18F
RACINE         SUNNY     70  52  52 SE14      30.21S
6HR MIN TEMP:  54; 6HR MAX TEMP:  70;

BURLINGTON     MOSUNNY   68  53  58 S6        30.19S
KENOSHA        MOSUNNY   71  54  54 VRB3      30.19S
6HR MIN TEMP:  50; 6HR MAX TEMP:  74;

FOND DU LAC    MOSUNNY   72  54  53 SW9       30.16F
6HR MIN TEMP:  53; 6HR MAX TEMP:  73;

SHEBOYGAN      MOSUNNY   71  60  68 S9        30.16F
6HR MIN TEMP:  55; 6HR MAX TEMP:  72;

WEST BEND      MOSUNNY   70  54  56 SW6       30.17F
JUNEAU         MOSUNNY   70  57  63 S10       30.19S
$$

LSZ147-162-271900-
LAKE SUPERIOR

STATION/POSITION TIME  TEMP    WIND        PRES    WAVE
                       AIR SEA DIR/SP/G            HT/PER
                 (UTC) (F)     (DEG/KT/KT) (MB)    (FT/S)
W MID LAKE BUOY  1750   56 56  200/  4/  6 1019.3F   0
DEVILS ISLAND    1800   57      20/  6/  6 1018.8F
PORT WING        1700   58      20/  8/  9 1019.0F
SAXON HARBOR     1740   64      CALM  /  2 1018.3F
$$

LMZ867-665-643>646-271900-
LAKE MICHIGAN

STATION/POSITION TIME  TEMP    WIND        PRES    WAVE
                       AIR SEA DIR/SP/G            HT/PER
                 (UTC) (F)     (DEG/KT/KT) (MB)    (FT/S)
CHAMBERS ISLAND  1700   63     250/  3/  7 1021.3F
S GREEN BAY BUOY 1800   57     170/  4/  6 1022.4F
N MID LAKE BUOY  1750   61 65  190/ 10/ 12 1020.9F   1
NORTHPORT PIER   1700   59     140/  6/  8 1021.0S
SISTER BAY       1719   73        CALM       N/A
ALGOMA LAKESHORE 1614             CALM       N/A
KEWAUNEE LAKESHO 1700   53     160/  7/  8 1020.4F
SHEBOYGAN LAKESH 1800   62     180/ 19/ 20 1021.6F
PORT WASHINGTON  1700   62     190/  5/  8 1022.7
ATWATER BUOY     1800   54 48  140/  8/ 10 1023.1F
MILWAUKEE LAKESH 1700   54     140/ 12/ 12   N/A
S MID LAKE BUOY  1750   64 67  180/  8/ 10 1022.2F
KENOSHA   LAKESH 1800   61     150/ 10/ 11 1022.0F
$$

TC  - TEMPERATURE IN CELSIUS
VSB - VISIBILITY IN STATUTE MILES
WCI - WIND CHILL INDEX
HX  - HEAT INDEX




USA.gov is the U.S. government's official web portal to all federal, state and local government web resources and services.